When you browse on this site, cookies collect data to enhance your experience and personalize the content and advertising you see.
Visit our Privacy Policy to learn more. By continuing to use the site, you agree to this use of cookies and data.
  • In Sweden
  • List of Countries
  • For 7 days
  • Water Temperature
  • Weather Map
  • Weather Widgets
  • user-avatar
    Login

    Hourly Weather Baler

    Today, 22 August, Thursday

    Time Temperature Precipitation Wind Pressure Humidity
    00:00 +27°C° 0.3 mm 2 mps 755 mmHg 93%
    01:00 +27°C° 0.3 mm 2 mps 755 mmHg 92%
    02:00 +27°C° 0 mm 3 mps 754 mmHg 92%
    03:00 +27°C° 0 mm 3 mps 754 mmHg 91%
    04:00 +27°C° 0 mm 3 mps 754 mmHg 91%
    05:00 +27°C° 0 mm 3 mps 754 mmHg 91%
    06:00 +28°C° 0 mm 3 mps 754 mmHg 87%
    07:00 +29°C° 0 mm 3 mps 754 mmHg 83%
    08:00 +30°C° 0 mm 3 mps 754 mmHg 80%
    09:00 +31°C° 0 mm 2 mps 754 mmHg 73%
    10:00 +34°C° 0 mm 2 mps 754 mmHg 66%
    11:00 +35°C° 0 mm 1 mps 754 mmHg 60%
    12:00 +34°C° 0.4 mm 1 mps 753 mmHg 64%
    13:00 +34°C° 0.4 mm 1 mps 753 mmHg 68%
    14:00 +33°C° 0.4 mm 1 mps 753 mmHg 73%
    15:00 +32°C° 1.7 mm 1 mps 753 mmHg 79%
    16:00 +31°C° 1.7 mm 1 mps 753 mmHg 86%
    17:00 +29°C° 1.7 mm 1 mps 753 mmHg 93%
    18:00 +29°C° 1.5 mm 1 mps 753 mmHg 93%
    19:00 +28°C° 1.5 mm 2 mps 754 mmHg 94%
    20:00 +27°C° 1.5 mm 2 mps 754 mmHg 95%
    21:00 +27°C° 1.5 mm 2 mps 754 mmHg 95%
    22:00 +27°C° 1.5 mm 3 mps 754 mmHg 95%
    23:00 +27°C° 1.5 mm 3 mps 755 mmHg 95%

    Tomorrow, 23 August, Friday

    Time Temperature Precipitation Wind Pressure Humidity
    00:00 +27°C° 0 mm 3 mps 754 mmHg 94%
    01:00 +27°C° 0 mm 3 mps 754 mmHg 93%
    02:00 +27°C° 0 mm 4 mps 753 mmHg 92%
    03:00 +27°C° 0 mm 4 mps 753 mmHg 92%
    04:00 +27°C° 0 mm 4 mps 753 mmHg 92%
    05:00 +27°C° 0 mm 4 mps 753 mmHg 91%
    06:00 +28°C° 0 mm 4 mps 753 mmHg 88%
    07:00 +29°C° 0 mm 4 mps 753 mmHg 85%
    08:00 +30°C° 0 mm 4 mps 754 mmHg 81%
    09:00 +32°C° 0 mm 4 mps 754 mmHg 77%
    10:00 +33°C° 0 mm 4 mps 753 mmHg 72%
    11:00 +34°C° 0 mm 4 mps 753 mmHg 68%
    12:00 +34°C° 0.1 mm 5 mps 753 mmHg 68%
    13:00 +34°C° 0.1 mm 5 mps 752 mmHg 68%
    14:00 +34°C° 0.1 mm 5 mps 752 mmHg 68%
    15:00 +33°C° 0.2 mm 5 mps 752 mmHg 72%
    16:00 +32°C° 0.2 mm 5 mps 751 mmHg 76%
    17:00 +30°C° 0.2 mm 5 mps 751 mmHg 80%
    18:00 +29°C° 0.1 mm 5 mps 752 mmHg 82%
    19:00 +29°C° 0.1 mm 5 mps 752 mmHg 83%
    20:00 +28°C° 0.1 mm 5 mps 753 mmHg 84%
    21:00 +28°C° 0 mm 5 mps 753 mmHg 84%
    22:00 +28°C° 0 mm 6 mps 753 mmHg 83%
    23:00 +28°C° 0 mm 6 mps 753 mmHg 83%

    Day after tomorrow, 24 August, Saturday

    Time Temperature Precipitation Wind Pressure Humidity
    00:00 +28°C° 0 mm 5 mps 753 mmHg 84%
    01:00 +28°C° 0 mm 5 mps 752 mmHg 85%
    02:00 +28°C° 0 mm 5 mps 752 mmHg 86%
    03:00 +28°C° 0 mm 4 mps 752 mmHg 86%
    04:00 +28°C° 0 mm 4 mps 752 mmHg 87%
    05:00 +28°C° 0 mm 4 mps 752 mmHg 87%
    06:00 +28°C° 0 mm 4 mps 752 mmHg 85%
    07:00 +29°C° 0 mm 4 mps 753 mmHg 83%
    08:00 +29°C° 0 mm 4 mps 753 mmHg 81%
    09:00 +30°C° 0 mm 4 mps 753 mmHg 78%
    10:00 +32°C° 0 mm 4 mps 753 mmHg 74%
    11:00 +33°C° 0 mm 4 mps 753 mmHg 70%
    12:00 +33°C° 0.1 mm 4 mps 753 mmHg 73%
    13:00 +32°C° 0.1 mm 5 mps 752 mmHg 75%
    14:00 +30°C° 0.1 mm 5 mps 752 mmHg 78%
    15:00 +30°C° 0.1 mm 5 mps 752 mmHg 79%
    16:00 +30°C° 0.1 mm 5 mps 752 mmHg 80%
    17:00 +29°C° 0.1 mm 5 mps 752 mmHg 82%
    18:00 +29°C° 0 mm 4 mps 752 mmHg 84%
    19:00 +28°C° 0 mm 4 mps 753 mmHg 85%
    20:00 +28°C° 0 mm 4 mps 754 mmHg 87%
    21:00 +28°C° 0 mm 4 mps 754 mmHg 88%
    22:00 +28°C° 0 mm 3 mps 754 mmHg 88%
    23:00 +27°C° 0 mm 3 mps 755 mmHg 89%

    25 August, Sunday

    Time Temperature Precipitation Wind Pressure Humidity
    00:00 +27°C° 0 mm 3 mps 754 mmHg 89%
    01:00 +27°C° 0 mm 3 mps 754 mmHg 89%
    02:00 +27°C° 0 mm 3 mps 754 mmHg 89%
    03:00 +27°C° 0 mm 3 mps 754 mmHg 89%
    04:00 +27°C° 0 mm 3 mps 754 mmHg 89%
    05:00 +27°C° 0 mm 3 mps 754 mmHg 89%
    06:00 +28°C° 0 mm 2 mps 754 mmHg 85%
    07:00 +29°C° 0 mm 2 mps 755 mmHg 80%
    08:00 +31°C° 0 mm 2 mps 755 mmHg 76%
    09:00 +32°C° 0 mm 2 mps 755 mmHg 70%
    10:00 +35°C° 0 mm 3 mps 755 mmHg 64%
    11:00 +36°C° 0 mm 3 mps 755 mmHg 58%
    12:00 +36°C° 0.3 mm 3 mps 755 mmHg 61%
    13:00 +36°C° 0.3 mm 2 mps 754 mmHg 63%
    14:00 +35°C° 0.3 mm 2 mps 754 mmHg 66%
    15:00 +34°C° 0.5 mm 2 mps 754 mmHg 72%
    16:00 +32°C° 0.5 mm 2 mps 754 mmHg 78%
    17:00 +31°C° 0.5 mm 2 mps 754 mmHg 85%
    18:00 +30°C° 0.3 mm 2 mps 754 mmHg 88%
    19:00 +29°C° 0.3 mm 1 mps 755 mmHg 92%
    20:00 +28°C° 0.3 mm 1 mps 755 mmHg 95%
    21:00 +28°C° 0.2 mm 1 mps 756 mmHg 95%
    22:00 +27°C° 0.2 mm 2 mps 756 mmHg 94%
    23:00 +27°C° 0.2 mm 2 mps 756 mmHg 94%

    26 August, Monday

    Time Temperature Precipitation Wind Pressure Humidity
    00:00 +27°C° 0.1 mm 2 mps 756 mmHg 93%
    01:00 +27°C° 0.1 mm 2 mps 756 mmHg 93%
    02:00 +27°C° 0.1 mm 2 mps 755 mmHg 92%
    03:00 +27°C° 0 mm 2 mps 755 mmHg 92%
    04:00 +27°C° 0 mm 2 mps 755 mmHg 92%
    05:00 +27°C° 0 mm 2 mps 755 mmHg 91%
    06:00 +28°C° 0 mm 1 mps 755 mmHg 86%
    07:00 +30°C° 0 mm 1 mps 755 mmHg 80%
    08:00 +31°C° 0 mm 1 mps 756 mmHg 74%
    09:00 +32°C° 0.1 mm 1 mps 756 mmHg 70%
    10:00 +34°C° 0.1 mm 1 mps 755 mmHg 67%
    11:00 +36°C° 0.1 mm 2 mps 755 mmHg 63%
    12:00 +35°C° 0.6 mm 2 mps 755 mmHg 66%
    13:00 +35°C° 0.6 mm 2 mps 754 mmHg 69%
    14:00 +34°C° 0.6 mm 2 mps 754 mmHg 72%
    15:00 +34°C° 0.5 mm 2 mps 754 mmHg 76%
    16:00 +32°C° 0.5 mm 2 mps 754 mmHg 79%
    17:00 +31°C° 0.5 mm 2 mps 754 mmHg 82%
    18:00 +30°C° 1.4 mm 2 mps 754 mmHg 87%
    19:00 +29°C° 1.4 mm 1 mps 755 mmHg 92%
    20:00 +28°C° 1.4 mm 1 mps 756 mmHg 96%
    21:00 +27°C° 0.9 mm 1 mps 756 mmHg 96%
    22:00 +27°C° 0.9 mm 1 mps 756 mmHg 96%
    23:00 +27°C° 0.9 mm 1 mps 756 mmHg 96%

    27 August, Tuesday

    Time Temperature Precipitation Wind Pressure Humidity
    00:00 +27°C° 0.1 mm 1 mps 756 mmHg 96%
    01:00 +27°C° 0.1 mm 1 mps 755 mmHg 96%
    02:00 +26°C° 0.1 mm 1 mps 754 mmHg 96%
    03:00 +26°C° 0 mm 1 mps 754 mmHg 96%
    04:00 +26°C° 0 mm 1 mps 754 mmHg 96%
    05:00 +26°C° 0 mm 2 mps 754 mmHg 96%
    06:00 +28°C° 0 mm 1 mps 754 mmHg 91%
    07:00 +29°C° 0 mm 1 mps 754 mmHg 86%
    08:00 +30°C° 0 mm 1 mps 755 mmHg 82%
    09:00 +32°C° 0 mm 1 mps 755 mmHg 72%
    10:00 +34°C° 0 mm 1 mps 754 mmHg 63%
    11:00 +36°C° 0 mm 1 mps 754 mmHg 53%
    12:00 +35°C° 0.3 mm 1 mps 754 mmHg 60%
    13:00 +35°C° 0.3 mm 2 mps 753 mmHg 67%
    14:00 +34°C° 0.3 mm 2 mps 752 mmHg 73%
    15:00 +34°C° 0.5 mm 2 mps 752 mmHg 74%
    16:00 +33°C° 0.5 mm 1 mps 752 mmHg 74%
    17:00 +32°C° 0.5 mm 1 mps 752 mmHg 75%
    18:00 +31°C° 1.2 mm 1 mps 752 mmHg 81%
    19:00 +29°C° 1.2 mm 2 mps 752 mmHg 87%
    20:00 +28°C° 1.2 mm 2 mps 753 mmHg 93%
    21:00 +28°C° 0.2 mm 2 mps 753 mmHg 93%
    22:00 +27°C° 0.2 mm 2 mps 753 mmHg 93%
    23:00 +27°C° 0.2 mm 2 mps 753 mmHg 93%
    Show more